| time (UTC) | temp C | wind direction | speed KPH | gust KPH | rain 1hr cm | rain 24hr cm | rain mn cm | humidity % | barometer mb |
| 20260510215047 | 30 | 78 | 6.4 | 9.7 | 0.00 | 0.00 | 0.00 | 11 | 1020.2 |
| 20260510214547 | 28 | 85 | 4.8 | 9.7 | 0.00 | 0.00 | 0.00 | 12 | 1020.2 |
| 20260510214047 | 29 | 39 | 14.5 | 17.7 | 0.00 | 0.00 | 0.00 | 12 | 1020.4 |
| 20260510212047 | 28 | 343 | 9.7 | 14.5 | 0.00 | 0.00 | 0.00 | 12 | 1020.5 |
| 20260510211507 | 29 | 7 | 11.3 | 24.1 | 0.00 | 0.00 | 0.00 | 12 | 1020.6 |
| 20260510211007 | 28 | 258 | 6.4 | 16.1 | 0.00 | 0.00 | 0.00 | 12 | 1020.4 |
| 20260510210546 | 30 | 305 | 14.5 | 17.7 | 0.00 | 0.00 | 0.00 | 12 | 1020.5 |
| 20260510210008 | 29 | 40 | 9.7 | 17.7 | 0.00 | 0.00 | 0.00 | 13 | 1020.5 |
| 20260510205546 | 30 | 99 | 4.8 | 11.3 | 0.00 | 0.00 | 0.00 | 13 | 1020.7 |
| 20260510205046 | 29 | 65 | 12.9 | 16.1 | 0.00 | 0.00 | 0.00 | 12 | 1020.5 |
| 20260510204547 | 28 | 50 | 6.4 | 14.5 | 0.00 | 0.00 | 0.00 | 13 | 1020.8 |
| 20260510204007 | 29 | 137 | 4.8 | 8.0 | 0.00 | 0.00 | 0.00 | 12 | 1020.9 |
| 20260510203546 | 28 | 352 | 3.2 | 14.5 | 0.00 | 0.00 | 0.00 | 13 | 1020.6 |
| 20260510203047 | 28 | 155 | 6.4 | 19.3 | 0.00 | 0.00 | 0.00 | 13 | 1020.6 |
| 20260510202507 | 30 | 173 | 4.8 | 6.4 | 0.00 | 0.00 | 0.00 | 13 | 1020.8 |
| 20260510202007 | 28 | 58 | 11.3 | 14.5 | 0.00 | 0.00 | 0.00 | 12 | 1020.8 |
| 20260510201547 | 28 | 1 | 6.4 | 14.5 | 0.00 | 0.00 | 0.00 | 12 | 1021.0 |
| 20260510201008 | 29 | 35 | 8.0 | 16.1 | 0.00 | 0.00 | 0.00 | 12 | 1020.8 |
| 20260510200547 | 29 | 330 | 11.3 | 22.5 | 0.00 | 0.00 | 0.00 | 12 | 1020.9 |
| 20260510200047 | 28 | 28 | 9.7 | 20.9 | 0.00 | 0.00 | 0.00 | 13 | 1020.9 |
| 20260510195547 | 28 | 273 | 3.2 | 12.9 | 0.00 | 0.00 | 0.00 | 13 | 1021.1 |
| 20260510195008 | 27 | 260 | 8.0 | 16.1 | 0.00 | 0.00 | 0.00 | 13 | 1021.0 |
| 20260510194546 | 27 | 269 | 8.0 | 20.9 | 0.00 | 0.00 | 0.00 | 14 | 1020.8 |
| 20260510194046 | 28 | 316 | 4.8 | 14.5 | 0.00 | 0.00 | 0.00 | 13 | 1021.1 |
| 20260510193547 | 27 | 7 | 8.0 | 19.3 | 0.00 | 0.00 | 0.00 | 13 | 1021.1 |
| 20260510193008 | 28 | 302 | 9.7 | 16.1 | 0.00 | 0.00 | 0.00 | 13 | 1020.9 |
| 20260510192547 | 28 | 28 | 9.7 | 14.5 | 0.00 | 0.00 | 0.00 | 13 | 1021.1 |
| 20260510192007 | 26 | 287 | 4.8 | 17.7 | 0.00 | 0.00 | 0.00 | 14 | 1021.0 |
| 20260510191546 | 27 | 239 | 8.0 | 19.3 | 0.00 | 0.00 | 0.00 | 13 | 1021.0 |
| 20260510191047 | 28 | 6 | 6.4 | 14.5 | 0.00 | 0.00 | 0.00 | 13 | 1021.3 |
| 20260510190547 | 27 | 3 | 4.8 | 8.0 | 0.00 | 0.00 | 0.00 | 13 | 1021.1 |
| 20260510190007 | 27 | 11 | 8.0 | 14.5 | 0.00 | 0.00 | 0.00 | 13 | 1021.3 |
| 20260510185547 | 28 | 46 | 3.2 | 4.8 | 0.00 | 0.00 | 0.00 | 14 | 1021.3 |
| 20260510185047 | 27 | 46 | 12.9 | 17.7 | 0.00 | 0.00 | 0.00 | 14 | 1021.5 |
| 20260510184507 | 28 | 332 | 11.3 | 12.9 | 0.00 | 0.00 | 0.00 | 13 | 1021.4 |
| 20260510184007 | 27 | 4 | 6.4 | 12.9 | 0.00 | 0.00 | 0.00 | 14 | 1021.3 |
| 20260510183546 | 27 | 28 | 17.7 | 25.7 | 0.00 | 0.00 | 0.00 | 14 | 1021.5 |
| 20260510183007 | 28 | 61 | 3.2 | 17.7 | 0.00 | 0.00 | 0.00 | 14 | 1021.6 |
| 20260510182546 | 26 | 301 | 4.8 | 14.5 | 0.00 | 0.00 | 0.00 | 14 | 1021.5 |
| 20260510182046 | 27 | 354 | 6.4 | 14.5 | 0.00 | 0.00 | 0.00 | 14 | 1021.6 |
| 20260510181547 | 27 | 299 | 4.8 | 8.0 | 0.00 | 0.00 | 0.00 | 14 | 1021.5 |
| 20260510181007 | 27 | 299 | 8.0 | 11.3 | 0.00 | 0.00 | 0.00 | 14 | 1021.7 |
| 20260510180546 | 26 | 213 | 0.0 | 16.1 | 0.00 | 0.00 | 0.00 | 15 | 1021.7 |
| 20260510180047 | 27 | 121 | 8.0 | 22.5 | 0.00 | 0.00 | 0.00 | 14 | 1021.5 |
| 20260510175547 | 27 | 213 | 4.8 | 8.0 | 0.00 | 0.00 | 0.00 | 14 | 1021.8 |
| 20260510175007 | 26 | 38 | 8.0 | 17.7 | 0.00 | 0.00 | 0.00 | 15 | 1021.5 |
| 20260510174547 | 27 | 44 | 14.5 | 17.7 | 0.00 | 0.00 | 0.00 | 14 | 1021.6 |
| 20260510172547 | 26 | 6 | 4.8 | 17.7 | 0.00 | 0.00 | 0.00 | 15 | 1021.7 |
| 20260510172007 | 26 | 2 | 8.0 | 11.3 | 0.00 | 0.00 | 0.00 | 15 | 1021.6 |
| 20260510171547 | 25 | 37 | 8.0 | 9.7 | 0.00 | 0.00 | 0.00 | 15 | 1021.5 |
| 20260510171046 | 25 | 145 | 3.2 | 14.5 | 0.00 | 0.00 | 0.00 | 15 | 1021.5 |
| 20260510170507 | 25 | 77 | 6.4 | 11.3 | 0.00 | 0.00 | 0.00 | 15 | 1021.4 |
| 20260510170047 | 26 | 86 | 4.8 | 11.3 | 0.00 | 0.00 | 0.00 | 16 | 1021.4 |
| 20260510165547 | 25 | 17 | 8.0 | 16.1 | 0.00 | 0.00 | 0.00 | 16 | 1021.5 |
| 20260510165007 | 25 | 41 | 16.1 | 20.9 | 0.00 | 0.00 | 0.00 | 16 | 1021.4 |
| 20260510164546 | 25 | 29 | 8.0 | 16.1 | 0.00 | 0.00 | 0.00 | 16 | 1021.4 |
| 20260510164046 | 24 | 84 | 4.8 | 20.9 | 0.00 | 0.00 | 0.00 | 16 | 1021.3 |
| 20260510163546 | 25 | 12 | 6.4 | 14.5 | 0.00 | 0.00 | 0.00 | 16 | 1021.4 |
| 20260510161507 | 25 | 4 | 9.7 | 11.3 | 0.00 | 0.00 | 0.00 | 18 | 1021.3 |
| 20260510161008 | 24 | 103 | 6.4 | 16.1 | 0.00 | 0.00 | 0.00 | 19 | 1021.3 |
| 20260510160547 | 25 | 35 | 8.0 | 11.3 | 0.00 | 0.00 | 0.00 | 18 | 1021.3 |
| 20260510160047 | 24 | 7 | 3.2 | 12.9 | 0.00 | 0.00 | 0.00 | 18 | 1021.4 |
| 20260510155547 | 24 | 349 | 3.2 | 8.0 | 0.00 | 0.00 | 0.00 | 18 | 1021.4 |
| 20260510155046 | 23 | 319 | 8.0 | 8.0 | 0.00 | 0.00 | 0.00 | 18 | 1021.3 |
| 20260510154546 | 23 | 18 | 8.0 | 14.5 | 0.00 | 0.00 | 0.00 | 18 | 1021.1 |
| 20260510154007 | 23 | 28 | 9.7 | 12.9 | 0.00 | 0.00 | 0.00 | 18 | 1020.9 |
| 20260510153547 | 23 | 65 | 3.2 | 9.7 | 0.00 | 0.00 | 0.00 | 19 | 1021.0 |
| 20260510153047 | 23 | 33 | 8.0 | 11.3 | 0.00 | 0.00 | 0.00 | 19 | 1020.9 |
| 20260510152507 | 23 | 356 | 0.0 | 6.4 | 0.00 | 0.00 | 0.00 | 19 | 1021.1 |
| 20260510152007 | 23 | 37 | 3.2 | 9.7 | 0.00 | 0.00 | 0.00 | 19 | 1021.0 |
| 20260510151547 | 23 | 64 | 3.2 | 9.7 | 0.00 | 0.00 | 0.00 | 19 | 1021.0 |
| 20260510151008 | 23 | 46 | 6.4 | 8.0 | 0.00 | 0.00 | 0.00 | 18 | 1020.8 |
| 20260510150547 | 23 | 344 | 4.8 | 6.4 | 0.00 | 0.00 | 0.00 | 17 | 1020.9 |
| 20260510150046 | 22 | 113 | 3.2 | 6.4 | 0.00 | 0.00 | 0.00 | 18 | 1020.8 |
| 20260510145546 | 22 | 33 | 8.0 | 8.0 | 0.00 | 0.00 | 0.00 | 18 | 1020.7 |
| 20260510145047 | 23 | 35 | 0.0 | 8.0 | 0.00 | 0.00 | 0.00 | 18 | 1020.9 |
| 20260510144546 | 22 | 25 | 3.2 | 4.8 | 0.00 | 0.00 | 0.00 | 19 | 1020.8 |
| 20260510144046 | 22 | 123 | 0.0 | 4.8 | 0.00 | 0.00 | 0.00 | 18 | 1020.7 |
| 20260510143547 | 22 | 273 | 3.2 | 3.2 | 0.00 | 0.00 | 0.00 | 20 | 1020.7 |
| 20260510143006 | 21 | 303 | 3.2 | 4.8 | 0.00 | 0.00 | 0.00 | 21 | 1020.5 |
| 20260510142546 | 21 | 234 | 0.0 | 3.2 | 0.00 | 0.00 | 0.00 | 22 | 1020.5 |
| 20260510142046 | 21 | 185 | 0.0 | 3.2 | 0.00 | 0.00 | 0.00 | 23 | 1020.6 |
| 20260510141547 | 20 | 131 | 3.2 | 3.2 | 0.00 | 0.00 | 0.00 | 23 | 1020.6 |
| 20260510141047 | 19 | 275 | 0.0 | 3.2 | 0.00 | 0.00 | 0.00 | 27 | 1020.6 |
| 20260510140547 | 18 | 200 | 0.0 | 4.8 | 0.00 | 0.00 | 0.00 | 28 | 1020.5 |
| 20260510140006 | 17 | 279 | 0.0 | 4.8 | 0.00 | 0.00 | 0.00 | 30 | 1020.4 |
| 20260510135546 | 17 | 259 | 4.8 | 4.8 | 0.00 | 0.00 | 0.00 | 29 | 1020.4 |
| 20260510135046 | 16 | 264 | 4.8 | 4.8 | 0.00 | 0.00 | 0.00 | 30 | 1020.4 |
| 20260510125007 | 12 | 264 | 4.8 | 6.4 | 0.00 | 0.00 | 0.00 | 29 | 1020.0 |
| 20260510124546 | 11 | 280 | 4.8 | 4.8 | 0.00 | 0.00 | 0.00 | 29 | 1019.9 |
| 20260510124047 | 11 | 269 | 4.8 | 6.4 | 0.00 | 0.00 | 0.00 | 29 | 1019.8 |
| 20260510123546 | 12 | 267 | 4.8 | 8.0 | 0.00 | 0.00 | 0.00 | 29 | 1019.9 |
| 20260510123046 | 12 | 260 | 8.0 | 8.0 | 0.00 | 0.00 | 0.00 | 28 | 1019.9 |
| 20260510122546 | 12 | 263 | 8.0 | 8.0 | 0.00 | 0.00 | 0.00 | 29 | 1019.9 |
| 20260510122006 | 11 | 262 | 8.0 | 8.0 | 0.00 | 0.00 | 0.00 | 29 | 1019.8 |
| 20260510121546 | 12 | 256 | 4.8 | 8.0 | 0.00 | 0.00 | 0.00 | 29 | 1019.5 |
| 20260510121047 | 11 | 267 | 8.0 | 9.7 | 0.00 | 0.00 | 0.00 | 29 | 1019.5 |
| 20260510120507 | 11 | 250 | 6.4 | 8.0 | 0.00 | 0.00 | 0.00 | 29 | 1019.7 |
| 20260510120007 | 11 | 266 | 8.0 | 9.7 | 0.00 | 0.00 | 0.00 | 29 | 1019.7 |
| 20260510115547 | 11 | 273 | 6.4 | 8.0 | 0.00 | 0.00 | 0.00 | 29 | 1019.7 |
| 20260510113547 | 12 | 276 | 6.4 | 8.0 | 0.00 | 0.00 | 0.00 | 29 | 1019.5 |
| 20260510113007 | 12 | 263 | 4.8 | 6.4 | 0.00 | 0.00 | 0.00 | 28 | 1019.5 |
| 20260510112547 | 12 | 266 | 6.4 | 8.0 | 0.00 | 0.00 | 0.00 | 27 | 1019.5 |
| 20260510112046 | 12 | 282 | 6.4 | 8.0 | 0.00 | 0.00 | 0.00 | 28 | 1019.7 |
| 20260510111507 | 12 | 276 | 4.8 | 6.4 | 0.00 | 0.00 | 0.00 | 28 | 1019.6 |
| 20260510111007 | 13 | 306 | 3.2 | 6.4 | 0.00 | 0.00 | 0.00 | 27 | 1019.7 |
| 20260510110547 | 13 | 305 | 4.8 | 6.4 | 0.00 | 0.00 | 0.00 | 26 | 1019.7 |
| 20260510110047 | 13 | 273 | 4.8 | 6.4 | 0.00 | 0.00 | 0.00 | 26 | 1019.5 |
| 20260510105546 | 13 | 295 | 4.8 | 6.4 | 0.00 | 0.00 | 0.00 | 25 | 1019.5 |
| 20260510105046 | 14 | 278 | 4.8 | 4.8 | 0.00 | 0.00 | 0.00 | 25 | 1019.4 |
| 20260510104547 | 14 | 247 | 3.2 | 6.4 | 0.00 | 0.00 | 0.00 | 24 | 1019.6 |
| 20260510104007 | 16 | 229 | 0.0 | 6.4 | 0.00 | 0.00 | 0.00 | 23 | 1019.7 |
| 20260510103546 | 17 | 267 | 3.2 | 6.4 | 0.00 | 0.00 | 0.00 | 22 | 1019.6 |
| 20260510103047 | 17 | 292 | 6.4 | 6.4 | 0.00 | 0.00 | 0.00 | 21 | 1019.5 |
| 20260510102508 | 17 | 334 | 4.8 | 6.4 | 0.00 | 0.00 | 0.00 | 21 | 1019.4 |
| 20260510102008 | 16 | 8 | 4.8 | 8.0 | 0.00 | 0.00 | 0.00 | 22 | 1019.5 |
| 20260510101547 | 17 | 9 | 8.0 | 9.7 | 0.00 | 0.00 | 0.00 | 21 | 1019.4 |
| 20260510101008 | 17 | 266 | 6.4 | 12.9 | 0.00 | 0.00 | 0.00 | 20 | 1019.2 |
| 20260510100546 | 18 | 272 | 6.4 | 9.7 | 0.00 | 0.00 | 0.00 | 20 | 1019.0 |
| 20260510100046 | 18 | 271 | 8.0 | 12.9 | 0.00 | 0.00 | 0.00 | 20 | 1019.2 |
| 20260510095546 | 17 | 284 | 6.4 | 11.3 | 0.00 | 0.00 | 0.00 | 20 | 1019.0 |
| 20260510095007 | 17 | 267 | 11.3 | 16.1 | 0.00 | 0.00 | 0.00 | 20 | 1018.9 |
| 20260510094547 | 17 | 263 | 9.7 | 14.5 | 0.00 | 0.00 | 0.00 | 20 | 1019.0 |
| 20260510094047 | 17 | 249 | 11.3 | 14.5 | 0.00 | 0.00 | 0.00 | 20 | 1019.0 |
| 20260510093546 | 17 | 262 | 9.7 | 12.9 | 0.00 | 0.00 | 0.00 | 20 | 1018.9 |
| 20260510093007 | 18 | 264 | 11.3 | 11.3 | 0.00 | 0.00 | 0.00 | 20 | 1019.2 |
| 20260510092547 | 18 | 269 | 11.3 | 12.9 | 0.00 | 0.00 | 0.00 | 20 | 1019.0 |
| 20260510092047 | 18 | 260 | 8.0 | 11.3 | 0.00 | 0.00 | 0.00 | 20 | 1019.0 |
| 20260510091547 | 18 | 259 | 11.3 | 11.3 | 0.00 | 0.00 | 0.00 | 20 | 1018.9 |
| 20260510091047 | 17 | 256 | 9.7 | 11.3 | 0.00 | 0.00 | 0.00 | 20 | 1018.9 |
| 20260510090547 | 17 | 262 | 9.7 | 11.3 | 0.00 | 0.00 | 0.00 | 20 | 1018.7 |
| 20260510090007 | 17 | 254 | 11.3 | 16.1 | 0.00 | 0.00 | 0.00 | 20 | 1018.8 |
| 20260510085547 | 17 | 261 | 11.3 | 16.1 | 0.00 | 0.00 | 0.00 | 20 | 1018.9 |
| 20260510084007 | 17 | 249 | 14.5 | 14.5 | 0.00 | 0.00 | 0.00 | 20 | 1018.9 |
| 20260510083527 | 18 | 248 | 11.3 | 12.9 | 0.00 | 0.00 | 0.00 | 21 | 1018.9 |
| 20260510083047 | 18 | 258 | 9.7 | 14.5 | 0.00 | 0.00 | 0.00 | 20 | 1019.0 |
| 20260510082546 | 18 | 263 | 8.0 | 12.9 | 0.00 | 0.00 | 0.00 | 20 | 1018.9 |
| 20260510082047 | 18 | 265 | 11.3 | 12.9 | 0.00 | 0.00 | 0.00 | 20 | 1019.0 |
| 20260510081547 | 18 | 266 | 9.7 | 12.9 | 0.00 | 0.00 | 0.00 | 20 | 1018.9 |
| 20260510081007 | 18 | 264 | 9.7 | 14.5 | 0.00 | 0.00 | 0.00 | 20 | 1018.8 |
| 20260510080547 | 18 | 257 | 8.0 | 11.3 | 0.00 | 0.00 | 0.00 | 21 | 1018.9 |
| 20260510080047 | 17 | 249 | 9.7 | 12.9 | 0.00 | 0.00 | 0.00 | 21 | 1018.9 |
| 20260510074546 | 17 | 263 | 8.0 | 14.5 | 0.00 | 0.00 | 0.00 | 21 | 1019.2 |
| 20260510074047 | 17 | 274 | 8.0 | 14.5 | 0.00 | 0.00 | 0.00 | 21 | 1018.9 |
| 20260510073547 | 17 | 237 | 6.4 | 9.7 | 0.00 | 0.00 | 0.00 | 22 | 1019.0 |
| 20260510073047 | 17 | 247 | 9.7 | 11.3 | 0.00 | 0.00 | 0.00 | 21 | 1019.0 |
| 20260510072547 | 17 | 245 | 6.4 | 11.3 | 0.00 | 0.00 | 0.00 | 21 | 1018.9 |
| 20260510072007 | 17 | 225 | 3.2 | 11.3 | 0.00 | 0.00 | 0.00 | 21 | 1018.9 |
| 20260510071546 | 18 | 234 | 4.8 | 11.3 | 0.00 | 0.00 | 0.00 | 21 | 1018.7 |
| 20260510071046 | 18 | 267 | 9.7 | 12.9 | 0.00 | 0.00 | 0.00 | 20 | 1019.0 |
| 20260510065047 | 18 | 265 | 8.0 | 9.7 | 0.00 | 0.00 | 0.00 | 20 | 1019.0 |
| 20260510064546 | 18 | 265 | 6.4 | 8.0 | 0.00 | 0.00 | 0.00 | 20 | 1018.8 |
| 20260510064047 | 18 | 229 | 4.8 | 6.4 | 0.00 | 0.00 | 0.00 | 20 | 1018.8 |
| 20260510062047 | 19 | 267 | 8.0 | 8.0 | 0.00 | 0.00 | 0.00 | 20 | 1018.7 |
| 20260510061507 | 19 | 262 | 6.4 | 8.0 | 0.00 | 0.00 | 0.00 | 20 | 1018.7 |
| 20260510061007 | 20 | 226 | 6.4 | 11.3 | 0.00 | 0.00 | 0.00 | 20 | 1018.6 |
| 20260510060546 | 19 | 265 | 8.0 | 9.7 | 0.00 | 0.00 | 0.00 | 20 | 1018.6 |
| 20260510060047 | 20 | 266 | 8.0 | 11.3 | 0.00 | 0.00 | 0.00 | 20 | 1018.6 |
| 20260510055547 | 19 | 262 | 6.4 | 9.7 | 0.00 | 0.00 | 0.00 | 20 | 1018.6 |
| 20260510055047 | 19 | 249 | 4.8 | 8.0 | 0.00 | 0.00 | 0.00 | 20 | 1018.5 |
| 20260510054547 | 20 | 268 | 8.0 | 12.9 | 0.00 | 0.00 | 0.00 | 19 | 1018.5 |
| 20260510054008 | 20 | 260 | 9.7 | 14.5 | 0.00 | 0.00 | 0.00 | 19 | 1018.4 |
| 20260510053547 | 20 | 263 | 14.5 | 14.5 | 0.00 | 0.00 | 0.00 | 19 | 1018.6 |
| 20260510053047 | 20 | 265 | 9.7 | 14.5 | 0.00 | 0.00 | 0.00 | 19 | 1018.5 |
| 20260510052508 | 20 | 264 | 9.7 | 11.3 | 0.00 | 0.00 | 0.00 | 19 | 1018.6 |
| 20260510052008 | 20 | 265 | 9.7 | 11.3 | 0.00 | 0.00 | 0.00 | 20 | 1018.4 |
| 20260510051547 | 20 | 262 | 6.4 | 12.9 | 0.00 | 0.00 | 0.00 | 19 | 1018.6 |
| 20260510051008 | 20 | 267 | 9.7 | 14.5 | 0.00 | 0.00 | 0.00 | 20 | 1018.5 |
| 20260510050547 | 20 | 268 | 11.3 | 14.5 | 0.00 | 0.00 | 0.00 | 19 | 1018.6 |
| 20260510050047 | 20 | 265 | 9.7 | 11.3 | 0.00 | 0.00 | 0.00 | 19 | 1018.5 |
| 20260510045546 | 20 | 269 | 8.0 | 11.3 | 0.00 | 0.00 | 0.00 | 19 | 1018.6 |
| 20260510045027 | 20 | 253 | 6.4 | 11.3 | 0.00 | 0.00 | 0.00 | 19 | 1018.6 |
| 20260510044546 | 20 | 271 | 9.7 | 12.9 | 0.00 | 0.00 | 0.00 | 19 | 1018.6 |
| 20260510044046 | 20 | 250 | 6.4 | 9.7 | 0.00 | 0.00 | 0.00 | 19 | 1018.5 |
| 20260510043546 | 20 | 253 | 9.7 | 9.7 | 0.00 | 0.00 | 0.00 | 19 | 1018.6 |
| 20260510041546 | 20 | 260 | 6.4 | 14.5 | 0.00 | 0.00 | 0.00 | 19 | 1018.4 |
| 20260510041046 | 20 | 266 | 8.0 | 12.9 | 0.00 | 0.00 | 0.00 | 19 | 1018.5 |
| 20260510040546 | 20 | 261 | 8.0 | 8.0 | 0.00 | 0.00 | 0.00 | 19 | 1018.5 |
| 20260510040007 | 20 | 242 | 6.4 | 8.0 | 0.00 | 0.00 | 0.00 | 20 | 1018.0 |
| 20260510035547 | 20 | 237 | 4.8 | 6.4 | 0.00 | 0.00 | 0.00 | 19 | 1018.1 |
| 20260510035047 | 20 | 258 | 6.4 | 8.0 | 0.00 | 0.00 | 0.00 | 19 | 1018.2 |
| 20260510030047 | 21 | 257 | 8.0 | 11.3 | 0.00 | 0.00 | 0.00 | 20 | 1017.7 |
| 20260510025508 | 21 | 241 | 4.8 | 9.7 | 0.00 | 0.00 | 0.00 | 20 | 1017.6 |
| 20260510025047 | 21 | 279 | 8.0 | 9.7 | 0.00 | 0.00 | 0.00 | 20 | 1017.5 |
| 20260510024547 | 21 | 256 | 8.0 | 12.9 | 0.00 | 0.00 | 0.00 | 20 | 1017.7 |
| 20260510024047 | 21 | 254 | 4.8 | 8.0 | 0.00 | 0.00 | 0.00 | 20 | 1017.7 |
| 20260510023546 | 21 | 268 | 4.8 | 8.0 | 0.00 | 0.00 | 0.00 | 20 | 1017.6 |
| 20260510023046 | 22 | 240 | 8.0 | 8.0 | 0.00 | 0.00 | 0.00 | 20 | 1017.7 |
| 20260510022546 | 22 | 248 | 6.4 | 14.5 | 0.00 | 0.00 | 0.00 | 19 | 1017.5 |
| 20260510022008 | 22 | 240 | 6.4 | 11.3 | 0.00 | 0.00 | 0.00 | 19 | 1017.6 |
| 20260510021547 | 23 | 222 | 12.9 | 14.5 | 0.00 | 0.00 | 0.00 | 19 | 1017.6 |
| 20260510021047 | 23 | 225 | 4.8 | 12.9 | 0.00 | 0.00 | 0.00 | 19 | 1017.2 |
| 20260510020507 | 23 | 252 | 4.8 | 9.7 | 0.00 | 0.00 | 0.00 | 19 | 1017.3 |
| 20260510020046 | 24 | 220 | 9.7 | 17.7 | 0.00 | 0.00 | 0.00 | 18 | 1017.2 |
| 20260510015546 | 24 | 268 | 6.4 | 14.5 | 0.00 | 0.00 | 0.00 | 18 | 1017.4 |
| 20260510015007 | 25 | 220 | 8.0 | 20.9 | 0.00 | 0.00 | 0.00 | 18 | 1017.2 |
| 20260510014546 | 25 | 224 | 9.7 | 11.3 | 0.00 | 0.00 | 0.00 | 18 | 1017.3 |
| 20260510014046 | 25 | 205 | 11.3 | 16.1 | 0.00 | 0.00 | 0.00 | 18 | 1017.1 |
| 20260510013547 | 25 | 260 | 14.5 | 20.9 | 0.00 | 0.00 | 0.00 | 17 | 1017.0 |
| 20260510013007 | 25 | 249 | 12.9 | 19.3 | 0.00 | 0.00 | 0.00 | 17 | 1017.2 |
| 20260510012546 | 26 | 233 | 6.4 | 11.3 | 0.00 | 0.00 | 0.00 | 17 | 1017.2 |
| 20260510012046 | 26 | 211 | 14.5 | 14.5 | 0.00 | 0.00 | 0.00 | 17 | 1017.1 |
| 20260510011546 | 26 | 232 | 22.5 | 25.7 | 0.00 | 0.00 | 0.00 | 17 | 1017.1 |
| 20260510011007 | 25 | 258 | 24.1 | 32.2 | 0.00 | 0.00 | 0.00 | 17 | 1017.0 |
| 20260510010546 | 26 | 249 | 11.3 | 20.9 | 0.00 | 0.00 | 0.00 | 17 | 1017.0 |
| 20260510010047 | 26 | 222 | 14.5 | 19.3 | 0.00 | 0.00 | 0.00 | 17 | 1016.8 |
| 20260510005546 | 26 | 219 | 11.3 | 19.3 | 0.00 | 0.00 | 0.00 | 17 | 1016.8 |
| 20260510005046 | 26 | 216 | 20.9 | 24.1 | 0.00 | 0.00 | 0.00 | 17 | 1017.0 |
| 20260510004547 | 26 | 243 | 11.3 | 20.9 | 0.00 | 0.00 | 0.00 | 17 | 1017.1 |
| 20260510004008 | 26 | 265 | 16.1 | 30.6 | 0.00 | 0.00 | 0.00 | 17 | 1017.0 |
| 20260510003546 | 26 | 193 | 14.5 | 22.5 | 0.00 | 0.00 | 0.00 | 17 | 1017.2 |
| 20260510003047 | 26 | 271 | 11.3 | 19.3 | 0.00 | 0.00 | 0.00 | 17 | 1017.0 |
| 20260510002507 | 26 | 215 | 11.3 | 27.4 | 0.00 | 0.00 | 0.00 | 17 | 1017.1 |
| 20260510002007 | 26 | 254 | 20.9 | 24.1 | 0.00 | 0.00 | 0.00 | 17 | 1017.2 |
| 20260510001546 | 26 | 248 | 8.0 | 35.4 | 0.00 | 0.00 | 0.00 | 17 | 1017.1 |
| 20260510001007 | 26 | 238 | 16.1 | 29.0 | 0.00 | 0.00 | 0.00 | 17 | 1017.1 |
| 20260510000546 | 26 | 271 | 17.7 | 32.2 | 0.00 | 0.00 | 0.00 | 17 | 1017.2 |
| 20260510000046 | 26 | 216 | 27.4 | 32.2 | 0.00 | 0.00 | 0.00 | 17 | 1017.2 |
| 20260509235546 | 27 | 264 | 12.9 | 20.9 | 0.00 | 0.00 | 0.00 | 16 | 1017.1 |
| 20260509235046 | 27 | 219 | 11.3 | 25.7 | 0.00 | 0.00 | 0.00 | 17 | 1017.2 |
| 20260509233008 | 27 | 267 | 14.5 | 24.1 | 0.00 | 0.00 | 0.00 | 16 | 1017.2 |
| 20260509232546 | 27 | 219 | 11.3 | 19.3 | 0.00 | 0.00 | 0.00 | 15 | 1017.1 |
| 20260509232047 | 27 | 214 | 12.9 | 27.4 | 0.00 | 0.00 | 0.00 | 15 | 1017.3 |
| 20260509231547 | 26 | 241 | 8.0 | 12.9 | 0.00 | 0.00 | 0.00 | 16 | 1017.2 |
| 20260509231047 | 26 | 214 | 12.9 | 27.4 | 0.00 | 0.00 | 0.00 | 16 | 1017.4 |
| 20260509230547 | 27 | 227 | 8.0 | 27.4 | 0.00 | 0.00 | 0.00 | 16 | 1017.4 |
| 20260509230008 | 27 | 251 | 8.0 | 25.7 | 0.00 | 0.00 | 0.00 | 16 | 1017.5 |
| 20260509225546 | 27 | 267 | 12.9 | 32.2 | 0.00 | 0.00 | 0.00 | 16 | 1017.6 |
| 20260509225046 | 26 | 269 | 14.5 | 32.2 | 0.00 | 0.00 | 0.00 | 16 | 1017.6 |
| 20260509224508 | 27 | 218 | 20.9 | 29.0 | 0.00 | 0.00 | 0.00 | 16 | 1017.4 |
| 20260509224008 | 27 | 267 | 17.7 | 22.5 | 0.00 | 0.00 | 0.00 | 15 | 1017.3 |
| 20260509223546 | 27 | 227 | 12.9 | 24.1 | 0.00 | 0.00 | 0.00 | 15 | 1017.5 |
| 20260509223008 | 27 | 230 | 11.3 | 24.1 | 0.00 | 0.00 | 0.00 | 16 | 1017.6 |
| 20260509222546 | 26 | 260 | 9.7 | 32.2 | 0.00 | 0.00 | 0.00 | 16 | 1017.5 |
| 20260509222046 | 27 | 257 | 12.9 | 14.5 | 0.00 | 0.00 | 0.00 | 15 | 1017.7 |
| 20260509221546 | 27 | 225 | 12.9 | 27.4 | 0.00 | 0.00 | 0.00 | 16 | 1017.8 |
| 20260509221047 | 26 | 238 | 11.3 | 35.4 | 0.00 | 0.00 | 0.00 | 16 | 1017.9 |
| 20260509220546 | 26 | 204 | 32.2 | 35.4 | 0.00 | 0.00 | 0.00 | 15 | 1018.0 |
| 20260509220047 | 27 | 226 | 14.5 | 32.2 | 0.00 | 0.00 | 0.00 | 15 | 1017.9 |